Total_Precipitation_Accumulation
2.00 1.90 1.42 0.84 0.68 0.51 0.45 0.49 0.48 0.40 0.43 0.54 0.57 0.60 0.65 0.67 0.66 0.69 0.73 0.73 0.72 0.83 1.12 1.25 1.33 1.64 1.91 2.06 2.24 2.40 2.53 2.64 2.91 3.11 3.12 3.02 2.87 2.62 2.51 2.49 2.41 2.32 2.24 2.33
1.74 1.33 0.81 0.62 0.62 0.60 0.57 0.58 0.55 0.45 0.41 0.53 0.58 0.59 0.55 0.55 0.64 0.74 0.74 0.79 0.82 0.83 1.00 1.14 1.21 1.38 1.60 1.83 2.06 2.29 2.42 2.54 2.58 2.66 2.91 3.07 3.12 2.94 2.67 2.52 2.44 2.34 2.26 2.27
1.30 0.81 0.63 0.73 0.71 0.71 0.61 0.52 0.48 0.48 0.49 0.56 0.59 0.65 0.53 0.52 0.58 0.65 0.69 0.74 0.77 0.80 0.88 1.00 1.12 1.34 1.45 1.59 1.84 2.13 2.30 2.44 2.49 2.55 2.84 3.08 3.25 3.08 2.74 2.41 2.28 2.30 2.29 2.29
1.15 0.71 0.69 0.80 0.67 0.59 0.58 0.36 0.36 0.41 0.60 0.70 0.64 0.86 0.59 0.54 0.57 0.62 0.68 0.67 0.68 0.73 0.76 0.82 0.95 1.13 1.26 1.41 1.61 1.78 2.00 2.17 2.38 2.49 2.59 2.67 2.80 2.82 2.55 2.41 2.32 2.36 2.39 2.36
1.10 0.76 0.77 0.81 0.57 0.48 0.48 0.32 0.38 0.43 0.58 0.68 0.53 0.76 0.64 0.44 0.50 0.62 0.71 0.69 0.68 0.74 0.75 0.76 0.90 1.09 1.16 1.26 1.51 1.67 1.75 1.95 2.18 2.35 2.41 2.56 2.59 2.62 2.68 2.64 2.52 2.43 2.41 2.36
0.82 0.67 0.78 0.68 0.51 0.48 0.49 0.48 0.55 0.56 0.79 0.87 0.42 0.57 0.62 0.46 0.53 0.56 0.57 0.62 0.67 0.73 0.80 0.86 0.99 1.08 1.12 1.19 1.36 1.57 1.59 1.67 1.85 2.13 2.36 2.41 2.38 2.44 2.48 2.47 2.41 2.39 2.40 2.36
1.04 0.79 0.67 0.62 0.72 0.64 0.63 0.82 1.16 1.21 1.12 0.63 0.28 0.44 0.62 0.47 0.47 0.50 0.52 0.55 0.61 0.70 0.74 0.85 0.97 0.98 1.03 1.14 1.24 1.39 1.50 1.57 1.67 1.85 2.08 2.26 2.35 2.38 2.39 2.40 2.35 2.26 2.17 2.10
1.04 1.06 0.67 0.59 0.71 0.74 0.60 0.67 0.88 0.87 0.54 0.35 0.28 0.43 0.54 0.43 0.38 0.35 0.37 0.44 0.53 0.62 0.64 0.68 0.82 0.89 0.96 1.07 1.13 1.16 1.23 1.30 1.37 1.46 1.61 1.82 2.10 2.22 2.16 2.15 2.10 2.07 1.99 1.96
0.72 0.70 0.43 0.38 0.42 0.49 0.64 0.62 0.49 0.77 0.56 0.46 0.36 0.38 0.40 0.31 0.31 0.30 0.34 0.42 0.53 0.63 0.68 0.67 0.74 0.79 0.84 0.96 1.08 1.07 1.07 1.13 1.21 1.24 1.34 1.46 1.69 1.86 1.90 1.93 1.87 1.78 1.75 1.80
0.52 0.57 0.39 0.34 0.43 0.46 0.47 0.48 0.62 1.05 0.93 0.65 0.38 0.35 0.50 0.40 0.32 0.34 0.41 0.47 0.56 0.69 0.70 0.66 0.69 0.75 0.76 0.84 0.97 1.00 1.02 1.05 1.18 1.21 1.24 1.31 1.41 1.51 1.67 1.76 1.65 1.60 1.57 1.60
0.42 0.59 0.49 0.43 0.48 0.42 0.37 0.50 0.61 0.75 0.75 0.78 0.51 0.49 0.54 0.47 0.41 0.40 0.44 0.51 0.63 0.67 0.70 0.73 0.74 0.77 0.81 0.86 0.91 0.91 0.97 1.03 1.14 1.17 1.13 1.14 1.20 1.24 1.34 1.43 1.47 1.42 1.43 1.42
0.34 0.53 0.50 0.33 0.23 0.23 0.34 0.37 0.51 0.86 0.68 0.57 0.58 0.58 0.46 0.41 0.40 0.41 0.43 0.48 0.56 0.57 0.64 0.71 0.72 0.74 0.82 0.86 0.85 0.83 0.87 0.93 1.05 1.08 1.02 1.01 1.05 1.11 1.16 1.19 1.28 1.29 1.30 1.32
0.53 0.77 0.75 0.53 0.46 0.44 0.48 0.36 0.38 0.65 0.88 0.68 0.67 0.64 0.44 0.35 0.35 0.37 0.41 0.46 0.46 0.46 0.49 0.55 0.61 0.62 0.66 0.68 0.70 0.77 0.77 0.75 0.81 0.85 0.82 0.81 0.82 0.89 0.98 1.02 1.05 1.09 1.15 1.19
0.79 0.81 0.66 0.62 0.54 0.63 0.60 0.35 0.34 0.83 1.13 0.63 0.44 0.48 0.41 0.38 0.42 0.43 0.44 0.44 0.40 0.39 0.39 0.46 0.55 0.53 0.56 0.60 0.61 0.68 0.67 0.66 0.71 0.73 0.71 0.72 0.72 0.74 0.79 0.86 0.86 0.88 0.93 1.01
0.71 0.72 0.39 0.38 0.41 0.58 0.54 0.37 0.35 0.57 0.56 0.61 0.39 0.36 0.42 0.45 0.52 0.50 0.47 0.41 0.33 0.31 0.33 0.40 0.51 0.55 0.54 0.59 0.61 0.62 0.66 0.71 0.76 0.77 0.77 0.73 0.71 0.69 0.72 0.77 0.79 0.77 0.78 0.79
0.64 0.70 0.47 0.42 0.38 0.50 0.44 0.26 0.25 0.29 0.30 0.34 0.29 0.37 0.39 0.41 0.46 0.48 0.46 0.37 0.29 0.28 0.29 0.32 0.41 0.58 0.54 0.59 0.68 0.69 0.73 0.81 0.83 0.86 0.81 0.77 0.71 0.68 0.65 0.66 0.67 0.68 0.70 0.69
0.69 0.82 0.96 0.70 0.36 0.49 0.49 0.33 0.30 0.30 0.30 0.32 0.40 0.40 0.33 0.38 0.44 0.44 0.39 0.30 0.26 0.25 0.26 0.30 0.35 0.52 0.60 0.63 0.74 0.83 0.85 0.90 0.89 0.89 0.82 0.76 0.71 0.68 0.66 0.63 0.63 0.66 0.69 0.71
0.55 0.81 1.22 1.01 0.64 0.71 0.50 0.34 0.32 0.33 0.33 0.31 0.32 0.29 0.28 0.34 0.37 0.35 0.30 0.27 0.24 0.22 0.22 0.26 0.32 0.38 0.51 0.55 0.63 0.74 0.82 0.93 0.93 0.92 0.90 0.86 0.83 0.84 0.86 0.86 0.87 0.87 0.84 0.86
0.30 0.70 1.17 1.06 0.78 0.44 0.25 0.21 0.31 0.39 0.39 0.30 0.25 0.21 0.18 0.20 0.28 0.33 0.28 0.26 0.27 0.25 0.23 0.24 0.27 0.29 0.35 0.44 0.50 0.60 0.74 0.91 1.03 1.10 1.11 1.12 1.12 1.15 1.17 1.18 1.19 1.18 1.19 1.18
0.25 0.53 1.08 1.05 0.87 0.45 0.26 0.13 0.16 0.29 0.48 0.24 0.18 0.18 0.17 0.18 0.30 0.37 0.33 0.29 0.28 0.26 0.25 0.24 0.25 0.27 0.31 0.41 0.49 0.62 0.83 1.00 1.14 1.21 1.24 1.26 1.33 1.38 1.34 1.29 1.25 1.18 1.15 1.17
0.39 0.68 0.94 0.88 0.85 0.47 0.29 0.14 0.13 0.44 0.58 0.26 0.21 0.22 0.22 0.28 0.35 0.31 0.28 0.30 0.30 0.30 0.33 0.34 0.35 0.39 0.42 0.47 0.58 0.75 0.89 1.03 1.10 1.13 1.16 1.18 1.16 1.17 1.13 1.09 1.05 1.00 0.96 0.92
0.38 0.55 0.60 0.66 0.89 0.64 0.33 0.24 0.42 0.58 0.37 0.27 0.22 0.22 0.24 0.25 0.22 0.20 0.18 0.21 0.24 0.27 0.34 0.43 0.49 0.53 0.54 0.58 0.67 0.76 0.81 0.85 0.85 0.86 0.86 0.86 0.80 0.74 0.74 0.76 0.77 0.75 0.74 0.71
0.44 0.59 0.63 0.68 0.74 0.59 0.44 0.48 0.53 0.44 0.37 0.27 0.24 0.22 0.22 0.21 0.20 0.17 0.15 0.14 0.15 0.16 0.19 0.25 0.33 0.39 0.39 0.40 0.46 0.51 0.50 0.47 0.48 0.48 0.51 0.52 0.50 0.48 0.48 0.51 0.55 0.58 0.60 0.61
0.42 0.39 0.50 0.58 0.54 0.42 0.40 0.40 0.38 0.35 0.35 0.31 0.26 0.24 0.22 0.23 0.21 0.18 0.15 0.14 0.13 0.13 0.14 0.16 0.18 0.21 0.22 0.22 0.24 0.27 0.26 0.24 0.25 0.30 0.34 0.39 0.42 0.44 0.44 0.46 0.50 0.54 0.57 0.61
0.37 0.36 0.46 0.53 0.43 0.37 0.33 0.31 0.31 0.29 0.27 0.25 0.23 0.22 0.22 0.22 0.22 0.20 0.19 0.17 0.17 0.16 0.16 0.17 0.19 0.19 0.21 0.21 0.21 0.21 0.22 0.22 0.22 0.24 0.27 0.31 0.38 0.45 0.47 0.47 0.50 0.57 0.60 0.72
0.36 0.44 0.58 0.58 0.42 0.46 0.40 0.30 0.27 0.26 0.24 0.25 0.25 0.25 0.24 0.23 0.25 0.22 0.21 0.21 0.20 0.20 0.19 0.19 0.20 0.23 0.26 0.27 0.29 0.28 0.28 0.27 0.27 0.28 0.28 0.33 0.38 0.43 0.48 0.51 0.51 0.56 0.61 0.67